AO-07 1 07530U 74089B 26237.51062100 -.00000023 00000-0 14777-3 0 9993 2 07530 101.9921 251.4821 0012242 0.8898 166.2006 12.53699270369202 UO-11 1 14781U 84021B 26237.61983705 .00001122 00000-0 11936-3 0 9994 2 14781 97.8131 202.4521 0006599 325.2549 34.8238 14.90944729267470 LO-19 1 20442U 90005G 26237.04320253 .00000074 00000-0 42953-4 0 9993 2 20442 98.8841 260.7408 0011651 9.8689 350.2721 14.34139632912269 AO-27 1 22825U 93061C 26237.64360666 .00000062 00000-0 40515-4 0 9992 2 22825 98.6827 305.0126 0007275 254.2728 105.7652 14.30957310716934 FO-29 1 24278U 96046B 26237.36397844 .00000007 00000-0 46340-4 0 9990 2 24278 98.5187 76.7535 0348794 276.9492 79.2100 13.53277117482527 GO-32 1 25397U 98043D 26237.39393178 .00000046 00000-0 40069-4 0 9996 2 25397 99.0129 231.9166 0001947 49.5442 310.5906 14.24439747461184 ISS 1 25544U 98067A 26237.66055538 .00007716 00000-0 14485-3 0 9994 2 25544 51.6329 316.2335 0007673 83.1052 277.0809 15.49625410582525 NO-44 1 26931U 01043C 26235.97866662 .00000080 00000-0 60923-4 0 9999 2 26931 67.0496 68.9288 0005650 270.3796 89.6659 14.31977234300159 SO-50 1 27607U 02058C 26237.54008956 .00000789 00000-0 11043-3 0 9990 2 27607 64.5511 274.3876 0073049 249.7539 109.5704 14.83176539274742 CO-55 1 27844U 03031E 26237.51147311 .00000229 00000-0 11777-3 0 9994 2 27844 98.6766 245.2071 0009337 351.9382 8.1646 14.24371784201541 RS-22 1 27939U 03042A 26237.89622082 .00000771 00000-0 12672-3 0 9992 2 27939 98.3486 64.2400 0012370 51.2421 81.0751 14.73573412225811 CO-65 1 32785U 08021C 26237.77413053 .00004804 00000-0 29944-3 0 9993 2 32785 97.8339 220.6953 0009622 142.9066 217.2829 15.10010023995692 CO-66 1 32791U 08021J 26237.41702366 .00018518 00000-0 54848-3 0 9997 2 32791 97.7552 238.7512 0004709 80.3531 279.8243 15.34917306997905 RS-30 1 32953U 08025A 26237.87298779 .00000020 00000-0 73457-4 0 9996 2 32953 82.5065 312.1010 0020202 156.8440 203.3555 12.43182147828354 SRMSAT 1 37841U 11058D 26237.64850984 .00000372 00000-0 57963-4 0 9998 2 37841 19.9733 359.0284 0011603 248.5454 227.7610 14.11588440767642 ZACUBE-1 1 39417U 13066B 26236.85384148 .00005302 00000-0 40596-3 0 9997 2 39417 97.8038 199.5196 0041906 23.2843 337.0267 15.01612971691033 Delfi-N3xt 1 39428U 13066N 26237.69828543 .00006793 00000-0 58129-3 0 9990 2 39428 97.8292 157.9651 0072956 336.6021 23.1885 14.95863844685018 GOMX-1 1 39430U 13066Q 26237.84085352 .00001389 00000-0 21410-3 0 9992 2 39430 97.6452 73.9133 0127229 213.1513 146.1676 14.69632469680149 LO-74 1 39440U 13066AA 26237.58439925 .00002289 00000-0 21261-3 0 9997 2 39440 97.8944 186.8951 0057561 155.7912 204.6033 14.94160522687356 AO-73 1 39444U 13066AE 26237.64059103 .00006642 00000-0 40337-3 0 9996 2 39444 97.8340 210.6043 0034557 330.2827 29.6438 15.10351827690147 DTUSAT-2 1 40030U 14033W 26236.77663720 .00005840 00000-0 30956-3 0 9998 2 40030 98.0898 238.9146 0007995 14.7675 345.3788 15.15793640663075 LILACSAT-2 1 40908U 15049K 26237.88008249 .00016831 00000-0 26486-3 0 9997 2 40908 97.4596 277.4576 0006377 16.4724 343.6735 15.53651146606569 Lapan A3 1 41603U 16040E 26237.88979097 .00002972 00000-0 93974-4 0 9998 2 41603 97.1542 231.7839 0011807 120.1386 240.1028 15.33490980565493 CAS-2T 1 41847U 16066G 26237.63328927 .00000444 00000-0 72501-4 0 9994 2 41847 98.3779 312.5742 0340060 278.8674 77.4165 14.44814903514826 TechnoSat 1 42829U 17042E 26237.65539341 .00003554 00000-0 25189-3 0 9990 2 42829 97.4360 32.7216 0016823 213.3902 146.6265 15.05295995497153 AO-91 1 43017U 17073E 26237.57781441 .00008388 00000-0 35626-3 0 9992 2 43017 97.4604 103.3769 0149730 88.8422 272.9959 15.13613062475885 S-Net D 1 43186U 18014G 26237.45919450 .00004173 00000-0 21305-3 0 9992 2 43186 97.5280 141.8153 0009395 129.7316 230.4746 15.17225200469261 S-Net B 1 43187U 18014H 26237.53800047 .00004355 00000-0 22236-3 0 9999 2 43187 97.5285 141.8823 0010077 126.0963 234.1204 15.17193757469270 S-Net A 1 43188U 18014J 26237.65554991 .00003889 00000-0 19872-3 0 9990 2 43188 97.5295 142.2213 0009974 126.2203 233.9954 15.17234494469298 S-Net C 1 43189U 18014K 26237.54229380 .00004456 00000-0 22743-3 0 9992 2 43189 97.5314 142.1940 0011442 121.1023 239.1334 15.17183588467828 Ten-Koh 1 43677U 18084G 26237.49163598 .00002482 00000-0 18841-3 0 9994 2 43677 98.0749 72.7825 0008614 244.0980 115.9357 15.03180528426571 PO-101 1 43678U 18084H 26237.85264203 .00001523 00000-0 12548-3 0 9993 2 43678 98.1204 77.1270 0010488 300.1670 59.8513 15.00676825426661 QO-100 1 43700U 18090A 26237.76419046 .00000142 00000-0 00000 0 0 9995 2 43700 0.0037 176.1245 0002445 5.8616 92.9250 1.00271827 28378 MinXSS-2 1 43758U 18099A 26237.20156109 .00044650 00000-0 74875-3 0 9991 2 43758 97.4484 315.7307 0005984 21.3387 338.8113 15.51680952424819 AO-95 1 43770U 18099N 26237.12870356 .00010853 00000-0 39892-3 0 9991 2 43770 97.4330 297.1627 0010111 103.4878 256.7489 15.28031746423746 SNUSat 2 1 43782U 18099AA 26237.08809410 .00007458 00000-0 32168-3 0 9998 2 43782 97.4011 289.4359 0011334 60.3615 299.8749 15.22774734423516 SnugLite 1 43784U 18099AC 26237.10745642 .00009963 00000-0 36168-3 0 9996 2 43784 97.3816 290.7519 0004117 66.5933 293.5740 15.28503552423847 ITASat 1 1 43786U 18099AE 26237.56502544 .00006102 00000-0 28729-3 0 9996 2 43786 97.3980 287.7064 0013981 108.7356 251.5397 15.19813151423446 EAGLET 1 1 43790U 18099AJ 26237.61977683 .00003921 00000-0 22291-3 0 9991 2 43790 97.4180 285.4479 0012679 104.1785 256.0856 15.13389264422837 ESEO 1 43792U 18099AL 26237.09125631 .00001123 00000-0 84413-4 0 9990 2 43792 97.3941 271.5209 0013987 97.4806 262.8011 15.04426101422167 JO-97 1 43803U 18099AX 26236.62279797 .00015872 00000-0 45910-3 0 9998 2 43803 97.4076 299.7724 0006050 42.5314 317.6397 15.35682704424123 Suomi 100 1 43804U 18099AY 26237.11162415 .00011588 00000-0 40234-3 0 9996 2 43804 97.4135 297.2972 0010454 44.9203 315.2882 15.29877690423950 ISAT 1 43879U 18111D 26237.37901085 .00256857 00000-0 11753-2 0 9998 2 43879 97.5797 178.7363 0007949 101.6851 258.5310 15.83009945422043 UWE-4 1 43880U 18111E 26237.75979178 .00035833 00000-0 63094-3 0 9995 2 43880 97.5821 169.5715 0009871 78.1766 282.0592 15.50315472421548 Sparrow 1 43881U 18111F 26228.98401838 .16116594 28263-5 19760-3 0 9992 2 43881 97.5857 177.1140 0010462 202.8700 157.2139 16.49385238421037 Prox-1 1 44339U 19036A 26237.70834775 .00013069 00000-0 12269-2 0 9994 2 44339 23.9961 9.3013 0005968 115.3036 244.8082 14.92071662383862 Taurus 1 1 44530U 19059C 26237.82915677 .00005027 00000-0 79556-3 0 9994 2 44530 98.6477 47.0403 0009661 94.5048 265.7262 14.72726456368897 TO-108 1 44881U 19093C 26237.84562580 .00000592 00000-0 72747-4 0 9992 2 44881 97.7489 308.3637 0012476 212.6637 147.3809 14.86610819361767 RS-44 1 44909U 19096E 26237.58492434 .00000027 00000-0 67429-4 0 9991 2 44909 82.5210 293.5984 0217080 342.4094 16.9570 12.79748902311226 SALSAT 1 46495U 20068K 26237.26336135 .00007111 00000-0 24232-3 0 9999 2 46495 97.8877 244.5903 0011122 65.4484 294.7913 15.30667520325922 CSS (TIANHE-1) 1 48274U 21035A 26237.47726206 .00016428 00000-0 20691-3 0 9992 2 48274 41.4679 261.3877 0001643 252.1478 107.9182 15.59254302303982 TeikyoSat 4 1 49396U 21102B 26237.52000495 .00001317 00000-0 85353-4 0 9992 2 49396 97.3649 264.3068 0013444 58.7687 301.4859 15.09717008263185 Z-Sat 1 49399U 21102E 26237.85038986 .00002590 00000-0 12756-3 0 9997 2 49399 97.3295 271.0650 0016638 10.4804 349.6774 15.18729815264013 KOSEN 1 1 49402U 21102H 26237.06630760 .00006470 00000-0 24122-3 0 9994 2 49402 97.3144 277.9074 0012215 330.6118 29.4433 15.27701901264536 HO-113 1 50466U 21131B 26237.81949189 .00000329 00000-0 11505-3 0 9997 2 50466 98.4977 329.8315 0002960 241.4504 118.6387 14.41411171245140 SNUGLITE 2 1 52899U 22065F 26237.38381095 .00000821 00000-0 16424-3 0 9996 2 52899 98.2297 22.1330 0007925 157.9342 202.2203 14.64455419221129 UmKA 1 (RS40S) 1 57172U 23091G 26237.82128126 .00005145 00000-0 23149-3 0 9994 2 57172 97.4998 296.2611 0011198 231.1624 128.8613 15.21495301174592 CubeBel-2 (EU11S) 1 57175U 23091K 26237.77327855 .00011826 00000-0 40082-3 0 9999 2 57175 97.4999 301.6668 0008409 219.5189 140.5440 15.30680218174947 RS-38S 1 57189U 23091Z 26237.80638025 .00016749 00000-0 44908-3 0 9992 2 57189 97.5044 308.7691 0007305 169.0642 191.0762 15.38029369175384 SONATE-2 1 59112U 24043Q 26237.67548905 .00046738 00000-0 49448-3 0 9995 2 59112 97.5592 32.6498 0004784 303.8854 56.1948 15.64022207138737 GRBBeta 1 60237U 24128C 26237.36605204 .00003353 00000-0 23439-3 0 9999 2 60237 61.9920 333.4723 0030853 149.7657 210.5225 15.07068956116697 Curium One 1 60242U 24128H 26237.36751953 .00007127 00000-0 40511-3 0 9991 2 60242 61.9801 320.5819 0029807 145.5167 214.7871 15.13406518116927 ROBUSTA-3A 1 60243U 24128J 26237.63677865 .00006559 00000-0 38259-3 0 9995 2 60243 61.9881 322.4909 0031666 142.5953 217.7355 15.12526555116926 CatSat 1 60246U 24125J 26237.08672416 .00099802 00000-0 89563-3 0 9998 2 60246 97.2010 90.9174 0014495 281.2037 78.7595 15.67838486118158 HYPERVIEW-1G (RS66S) 1 61772U 24199AP 26230.11543498 .07890463 24672-5 93922-3 0 9997 2 61772 97.2456 114.2453 0006603 245.8477 114.2131 16.36574258144515 AO-123 1 61781U 24199AY 26237.80039588 .00007058 00000-0 19919-3 0 9991 2 61781 97.2896 105.8499 0015195 62.6080 297.6709 15.36581582144615 LASARsat 1 62391U 24247Q 26237.39011242 .00038717 00000-0 66341-3 0 9991 2 62391 44.9711 232.0951 0007710 55.5752 304.5867 15.50590032 94045 CroCube 1 62394U 24247T 26237.03134957 .00043022 00000-0 67126-3 0 9991 2 62394 44.9685 230.1372 0007916 62.8834 297.2865 15.53158446 94031 JINJUSat 1B 1 63210U 25052A 26237.65836735 .00015859 00000-0 46155-3 0 9991 2 63210 97.3904 134.5732 0003329 153.4452 206.6963 15.35501274 80757 NUSHSAT 1 1 63211U 25052B 26237.70835973 .00020284 00000-0 53493-3 0 9992 2 63211 97.3879 135.4551 0002950 150.1766 209.9647 15.38519283 80824 TEVEL2-4 1 63213U 25052D 26237.44313730 .00018627 00000-0 51839-3 0 9997 2 63213 97.3801 134.0274 0002073 157.2357 202.8979 15.36870517 80747 TEVEL2-5 1 63214U 25052E 26237.47225635 .00018627 00000-0 52190-3 0 9998 2 63214 97.3801 133.9830 0001910 158.4449 201.6876 15.36660131 80740 TEVEL2-6 1 63215U 25052F 26237.68152750 .00017508 00000-0 49119-3 0 9993 2 63215 97.3804 134.1779 0001845 157.1439 202.9888 15.36633284 80770 TEVEL2-1 1 63217U 25052H 26237.21540064 .00017945 00000-0 51363-3 0 9992 2 63217 97.3777 133.2480 0001330 181.0795 179.0446 15.36001106 80686 TEVEL2-3 1 63218U 25052J 26237.66317170 .00017424 00000-0 49745-3 0 9995 2 63218 97.3780 133.7288 0001252 165.7192 194.4087 15.36087943 80758 TEVEL2-2 1 63219U 25052K 26237.15005463 .00018119 00000-0 51841-3 0 9991 2 63219 97.3779 133.1859 0001283 183.1287 176.9949 15.36012063 80672 TEVEL2-9 1 63237U 25052AD 26237.67705774 .00014953 00000-0 45839-3 0 9992 2 63237 97.3840 132.9296 0003852 245.6439 114.4402 15.33870090 80670 TEVEL2-7 1 63238U 25052AE 26235.51388802 .00015154 00000-0 47057-3 0 9991 2 63238 97.3840 130.6525 0003641 257.9226 102.1608 15.33456949 80335 TEVEL2-8 1 63239U 25052AF 26237.67610640 .00014962 00000-0 46384-3 0 9997 2 63239 97.3842 132.7877 0003769 248.7020 111.3820 15.33511361 80666 SPIRONE 1 66657U 25274H 26237.05430049 .00001324 00000-0 13008-3 0 9990 2 66657 97.7469 165.3689 0012887 138.9840 221.2351 14.93780146 40509 K-HERO 1 66660U 25274L 26237.30803494 .00001425 00000-0 13814-3 0 9997 2 66660 97.7478 165.8303 0014681 142.8112 217.4128 14.94179988 40552 SNUGLITE-III DURI 1 66661U 25274M 26237.69640404 .00001524 00000-0 14736-3 0 9994 2 66661 97.7475 166.2342 0015343 142.8904 217.3380 14.94194470 40612 SAKHACUBE-CHOLBON 1 67290U 25313AU 26237.16746162 .00009552 00000-0 37358-3 0 9991 2 67290 97.3893 311.3762 0010660 110.4899 249.7485 15.25999510 36490 RS95S (QMR-KWT-2) 1 67291U 25313AV 26237.21167634 .00014197 00000-0 52252-3 0 9990 2 67291 97.3892 311.7652 0010218 108.8551 251.3797 15.27917595 36521 Ten-Koh2 1 68261U 25241B 26236.59529002 .00007134 00000-0 29812-3 0 9998 2 68261 51.6644 353.8573 0006634 8.9705 351.1391 15.24650253 25343 JACK-002 1 68417U 26067B 26237.82113558 .00006328 00000-0 29567-3 0 9991 2 68417 97.4626 195.6118 0003609 61.7667 298.3932 15.20145410 22524 DISCO 2 1 68431U 26067R 26235.94362687 .00007060 00000-0 33112-3 0 9992 2 68431 97.4652 193.7486 0004144 102.7841 257.3858 15.19971810 22230 HADES-SA (SpinnyONE) 1 68446U 26067AG 26237.13978974 .00016600 00000-0 74618-3 0 9999 2 68446 97.4448 194.5306 0006255 171.4602 188.6741 15.21187781 22407 PARUS-6U1 1 68456U 26067AS 26237.60714397 .00004774 00000-0 23699-3 0 9991 2 68456 97.4608 194.9576 0005711 162.9698 197.1729 15.18150657 22460 SAL-E 1 68458U 26067AU 26236.59743294 .00006402 00000-0 31241-3 0 9990 2 68458 97.4530 193.8673 0005453 174.2136 185.9163 15.18621312 22310 FSI-SAT 2 1 68792U 26088A 26237.66881513 .00003656 00000-0 24587-3 0 9993 2 68792 97.5160 25.2447 0013046 224.9432 135.0741 15.07303269 18754 OrigamiSat 2 1 68795U 26088D 26237.37058696 .00013087 00000-0 80424-3 0 9993 2 68795 97.5138 25.3345 0014604 196.9411 163.1333 15.10102713 18738 ARICA 2 1 68796U 26088E 26237.33880325 .00003974 00000-0 25541-3 0 9995 2 68796 97.5151 25.2086 0015034 195.6647 164.4119 15.08898289 18722 WASEDA-SAT-ZERO-II 1 68797U 26088F 26237.38635907 .00005254 00000-0 33271-3 0 9997 2 68797 97.5139 25.2939 0014936 195.4638 164.6137 15.09305694 18731 MANGARO-II-Piscus 1 68798U 26088G 26237.37611209 .00003801 00000-0 24220-3 0 9996 2 68798 97.5152 25.3247 0018417 200.0193 160.0316 15.09198161 18735 CO-128 1 69912U 26156AV 26237.53910937 .00001396 00000-0 14721-3 0 9991 2 69912 97.7502 137.1196 0002589 14.8600 345.2694 14.90896517 7336 MARINA 1 69920U 26156BD 26237.63469829 .00001733 00000-0 17600-3 0 9994 2 69920 97.7470 137.2833 0007552 3.9423 356.1854 14.92094720 7354 IO-86 1 40931U 26199.45381863 .00000000 00000-0 77536-4 0 07 2 40931 6.0006 322.6653 0012733 338.8432 273.6875 14.79294310 03 LILIUM-4 1 71922C 26067AC 26089.50133053 -.00014632 00000 0 -74472-3 0 04 2 71922 97.4497 49.1617 0004341 5.9603 355.7042 15.16896692 16